Location: Borgo
(42.3939°N, 9.2791°E)
Time: 01:32:19
(UTC+00:00)

Aureole 3 - Pass Details

Date: 24 January 2021
Orbit: 381 x 1230 km, 82.5° (Epoch: 08 March)

Event Time Altitude Azimuth Distance (km) Brightness Sun altitude
Rises 17:12:33 0° 358° (N) 2,471 6.5 -8.7°
Reaches altitude 10° 17:14:49 10° 6° (N) 1,515 5.3 -9.1°
Maximum altitude 17:17:50 39° 77° (ENE) 613 3.1 -9.6°
Drops below altitude 10° 17:20:38 10° 149° (SSE) 1,399 5.3 -10.1°
Sets 17:22:38 0° 158° (SSE) 2,250 6.4 -10.5°
